Location: Burgberg
(50.1428°N, 11.0671°E)
Time: 21:27:18
(UTC+00:00)

Cosmos 371 Rocket - Pass Details

Date: 26 January 2020
Orbit: 684 x 699 km, 74.0° (Epoch: 18 February)

Event Time Altitude Azimuth Distance (km) Brightness Sun altitude
Exits shadow 06:14:59 - 334° (NNW) 3,109 6.2 -7.2°
Rises 06:15:03 0° 334° (NNW) 3,085 6.2 -7.2°
Reaches altitude 10° 06:17:23 10° 332° (NNW) 2,161 5.4 -6.8°
Maximum altitude 06:22:13 71° 249° (WSW) 736 3.3 -6.1°
Drops below altitude 10° 06:27:00 10° 167° (SSE) 2,135 6.4 -5.4°
Sets 06:29:18 0° 165° (SSE) 3,045 7.2 -5.0°
